Time,TemperatureF,DewpointF,PressureIn,WindDirection,WindDirectionDegrees,WindSpeedMPH,WindSpeedGustMPH,Humidity,HourlyPrecipIn,Conditions,Clouds,dailyrainin,SoftwareType,DateUTC
2013-05-29 00:08:00,39.4,20.0,29.34,North,360,0.0,-999.0,46,-99.99,,,0.00,weatherlink.com 1.10,2013-05-29 06:08:00,
2013-05-29 00:23:00,38.8,20.0,29.34,North,351,0.0,-999.0,47,-99.99,,,0.00,weatherlink.com 1.10,2013-05-29 06:23:00,
2013-05-29 00:38:00,38.6,20.0,29.34,North,349,0.0,-999.0,47,-99.99,,,0.00,weatherlink.com 1.10,2013-05-29 06:38:00,
2013-05-29 00:53:00,38.7,19.0,29.34,NNE,26,0.0,-999.0,45,-99.99,,,0.00,weatherlink.com 1.10,2013-05-29 06:53:00,
2013-05-29 01:08:00,39.4,19.0,29.33,NNW,344,0.0,-999.0,44,-99.99,,,0.00,weatherlink.com 1.10,2013-05-29 07:08:00,
2013-05-29 01:23:00,39.1,19.0,29.34,WNW,297,5.0,-999.0,45,-99.99,,,0.00,weatherlink.com 1.10,2013-05-29 07:23:00,
2013-05-29 01:38:00,37.9,20.0,29.34,WNW,296,0.0,-999.0,48,-99.99,,,0.00,weatherlink.com 1.10,2013-05-29 07:38:00,
2013-05-29 01:53:00,36.8,20.0,29.34,WNW,299,0.0,-999.0,50,-99.99,,,0.00,weatherlink.com 1.10,2013-05-29 07:53:00,
2013-05-29 02:08:00,36.5,20.0,29.34,NW,307,0.0,-999.0,51,-99.99,,,0.00,weatherlink.com 1.10,2013-05-29 08:08:00,
2013-05-29 02:23:00,36.3,20.0,29.33,West,274,0.0,-999.0,52,-99.99,,,0.00,weatherlink.com 1.10,2013-05-29 08:23:00,
2013-05-29 02:38:00,35.4,21.0,29.33,WNW,297,3.0,-999.0,55,-99.99,,,0.00,weatherlink.com 1.10,2013-05-29 08:38:00,
2013-05-29 02:53:00,35.1,20.0,29.33,WNW,288,0.0,-999.0,55,-99.99,,,0.00,weatherlink.com 1.10,2013-05-29 08:53:00,
2013-05-29 03:08:00,34.2,21.0,29.33,WNW,296,0.0,-999.0,58,-99.99,,,0.00,weatherlink.com 1.10,2013-05-29 09:08:00,
2013-05-29 03:23:00,33.8,20.0,29.32,NW,306,0.0,-999.0,58,-99.99,,,0.00,weatherlink.com 1.10,2013-05-29 09:23:00,
2013-05-29 03:38:00,34.4,20.0,29.32,NW,305,0.0,-999.0,56,-99.99,,,0.00,weatherlink.com 1.10,2013-05-29 09:38:00,
2013-05-29 03:53:00,34.4,20.0,29.32,NW,304,0.0,-999.0,56,-99.99,,,0.00,weatherlink.com 1.10,2013-05-29 09:53:00,
2013-05-29 04:08:00,34.6,20.0,29.31,WNW,303,0.0,-999.0,56,-99.99,,,0.00,weatherlink.com 1.10,2013-05-29 10:08:00,
2013-05-29 04:23:00,35.1,21.0,29.31,WNW,302,0.0,-999.0,56,-99.99,,,0.00,weatherlink.com 1.10,2013-05-29 10:23:00,
2013-05-29 04:38:00,35.5,21.0,29.31,WNW,294,0.0,-999.0,57,-99.99,,,0.00,weatherlink.com 1.10,2013-05-29 10:38:00,
2013-05-29 04:53:00,35.8,22.0,29.30,West,260,0.0,-999.0,57,-99.99,,,0.00,weatherlink.com 1.10,2013-05-29 10:53:00,
2013-05-29 05:08:00,36.0,22.0,29.29,West,264,0.0,-999.0,58,-99.99,,,0.00,weatherlink.com 1.10,2013-05-29 11:08:00,
2013-05-29 05:23:00,36.0,24.0,29.30,WNW,290,3.0,-999.0,62,-99.99,,,0.00,weatherlink.com 1.10,2013-05-29 11:23:00,
2013-05-29 05:38:00,34.4,24.0,29.29,West,276,6.0,-999.0,66,-99.99,,,0.00,weatherlink.com 1.10,2013-05-29 11:38:00,
2013-05-29 05:53:00,33.0,24.0,29.30,WNW,292,12.0,-999.0,70,-99.99,,,0.00,weatherlink.com 1.10,2013-05-29 11:53:00,
2013-05-29 06:08:00,32.3,22.0,29.29,NW,305,2.0,-999.0,67,-99.99,,,0.00,weatherlink.com 1.10,2013-05-29 12:08:00,
2013-05-29 06:23:00,33.2,23.0,29.29,North,360,3.0,-999.0,65,-99.99,,,0.00,weatherlink.com 1.10,2013-05-29 12:23:00,
2013-05-29 06:38:00,33.2,24.0,29.28,NNE,28,4.0,-999.0,68,-99.99,,,0.00,weatherlink.com 1.10,2013-05-29 12:38:00,
2013-05-29 06:53:00,32.8,24.0,29.29,NNE,12,0.0,-999.0,69,-99.99,,,0.00,weatherlink.com 1.10,2013-05-29 12:53:00,
2013-05-29 07:08:00,32.8,24.0,29.28,ENE,75,0.0,-999.0,71,-99.99,,,0.00,weatherlink.com 1.10,2013-05-29 13:08:00,
2013-05-29 07:23:00,33.3,24.0,29.28,ENE,77,0.0,-999.0,68,-99.99,,,0.00,weatherlink.com 1.10,2013-05-29 13:23:00,
2013-05-29 07:38:00,33.9,24.0,29.27,ENE,77,0.0,-999.0,67,-99.99,,,0.00,weatherlink.com 1.10,2013-05-29 13:38:00,
2013-05-29 07:53:00,34.7,21.0,29.27,West,280,0.0,-999.0,57,-99.99,,,0.00,weatherlink.com 1.10,2013-05-29 13:53:00,
2013-05-29 08:08:00,35.7,20.0,29.28,WNW,287,3.0,-999.0,53,-99.99,,,0.00,weatherlink.com 1.10,2013-05-29 14:08:00,
2013-05-29 08:23:00,36.9,19.0,29.29,WNW,284,11.0,-999.0,48,-99.99,,,0.00,weatherlink.com 1.10,2013-05-29 14:23:00,
2013-05-29 08:38:00,37.3,21.0,29.30,WNW,302,4.0,-999.0,51,-99.99,,,0.00,weatherlink.com 1.10,2013-05-29 14:38:00,
2013-05-29 08:53:00,38.5,21.0,29.30,NW,325,4.0,-999.0,50,-99.99,,,0.00,weatherlink.com 1.10,2013-05-29 14:53:00,
2013-05-29 09:08:00,39.5,23.0,29.30,West,281,3.0,-999.0,52,-99.99,,,0.00,weatherlink.com 1.10,2013-05-29 15:08:00,
2013-05-29 09:23:00,39.7,21.0,29.29,SSW,209,7.0,-999.0,48,-99.99,,,0.00,weatherlink.com 1.10,2013-05-29 15:23:00,
2013-05-29 09:38:00,41.3,23.0,29.30,WNW,286,15.0,-999.0,48,-99.99,,,0.00,weatherlink.com 1.10,2013-05-29 15:38:00,
2013-05-29 09:53:00,36.4,24.0,29.30,West,275,4.0,-999.0,61,-99.99,,,0.00,weatherlink.com 1.10,2013-05-29 15:53:00,
2013-05-29 10:08:00,35.2,23.0,29.30,West,269,12.0,-999.0,61,-99.99,,,0.00,weatherlink.com 1.10,2013-05-29 16:08:00,
2013-05-29 10:23:00,37.9,21.0,29.30,West,277,0.0,-999.0,51,-99.99,,,0.00,weatherlink.com 1.10,2013-05-29 16:23:00,
2013-05-29 10:38:00,40.3,22.0,29.29,West,281,6.0,-999.0,49,-99.99,,,0.00,weatherlink.com 1.10,2013-05-29 16:38:00,
2013-05-29 10:53:00,37.2,27.0,29.31,WNW,295,1.0,-999.0,66,-99.99,,,0.00,weatherlink.com 1.10,2013-05-29 16:53:00,
2013-05-29 11:08:00,34.4,24.0,29.32,WNW,284,9.0,-999.0,66,-99.99,,,0.00,weatherlink.com 1.10,2013-05-29 17:08:00,
2013-05-29 11:23:00,37.8,24.0,29.31,NW,316,3.0,-999.0,57,-99.99,,,0.00,weatherlink.com 1.10,2013-05-29 17:23:00,
2013-05-29 11:38:00,40.2,24.0,29.32,NW,314,3.0,-999.0,53,-99.99,,,0.00,weatherlink.com 1.10,2013-05-29 17:38:00,
2013-05-29 11:53:00,42.3,24.0,29.32,West,279,2.0,-999.0,49,-99.99,,,0.00,weatherlink.com 1.10,2013-05-29 17:53:00,
2013-05-29 12:08:00,38.9,28.0,29.32,WSW,257,13.0,-999.0,66,-99.99,,,0.00,weatherlink.com 1.10,2013-05-29 18:08:00,
2013-05-29 12:23:00,34.4,28.0,29.34,WNW,284,11.0,-999.0,78,-99.99,,,0.00,weatherlink.com 1.10,2013-05-29 18:23:00,
2013-05-29 12:38:00,35.8,30.0,29.33,NW,317,0.0,-999.0,78,-99.99,,,0.01,weatherlink.com 1.10,2013-05-29 18:38:00,
2013-05-29 12:53:00,40.2,29.0,29.32,West,263,9.0,-999.0,65,-99.99,,,0.01,weatherlink.com 1.10,2013-05-29 18:53:00,
2013-05-29 13:08:00,40.5,27.0,29.32,West,277,11.0,-999.0,60,-99.99,,,0.01,weatherlink.com 1.10,2013-05-29 19:08:00,
2013-05-29 13:23:00,41.8,27.0,29.32,West,279,10.0,-999.0,56,-99.99,,,0.01,weatherlink.com 1.10,2013-05-29 19:23:00,
2013-05-29 13:38:00,42.9,23.0,29.33,NNW,331,6.0,-999.0,45,-99.99,,,0.01,weatherlink.com 1.10,2013-05-29 19:38:00,
2013-05-29 13:53:00,44.4,24.0,29.33,West,279,12.0,-999.0,45,-99.99,,,0.01,weatherlink.com 1.10,2013-05-29 19:53:00,
2013-05-29 14:08:00,45.8,25.0,29.33,NW,325,6.0,-999.0,45,-99.99,,,0.01,weatherlink.com 1.10,2013-05-29 20:08:00,
2013-05-29 14:23:00,44.4,26.0,29.34,NW,316,18.0,-999.0,48,-99.99,,,0.01,weatherlink.com 1.10,2013-05-29 20:23:00,
2013-05-29 14:38:00,39.9,25.0,29.35,West,265,6.0,-999.0,56,-99.99,,,0.01,weatherlink.com 1.10,2013-05-29 20:38:00,
2013-05-29 14:53:00,39.2,27.0,29.34,NNW,333,10.0,-999.0,62,-99.99,,,0.01,weatherlink.com 1.10,2013-05-29 20:53:00,
2013-05-29 15:08:00,43.8,25.0,29.34,WNW,284,9.0,-999.0,47,-99.99,,,0.01,weatherlink.com 1.10,2013-05-29 21:08:00,
2013-05-29 15:23:00,41.5,25.0,29.35,WNW,296,7.0,-999.0,52,-99.99,,,0.01,weatherlink.com 1.10,2013-05-29 21:23:00,
2013-05-29 15:38:00,39.9,26.0,29.36,SW,219,2.0,-999.0,57,-99.99,,,0.01,weatherlink.com 1.10,2013-05-29 21:38:00,
2013-05-29 15:53:00,42.9,25.0,29.35,WNW,301,14.0,-999.0,49,-99.99,,,0.01,weatherlink.com 1.10,2013-05-29 21:53:00,
2013-05-29 16:08:00,43.8,24.0,29.35,NNW,332,15.0,-999.0,46,-99.99,,,0.01,weatherlink.com 1.10,2013-05-29 22:08:00,
2013-05-29 16:23:00,44.1,23.0,29.36,West,280,10.0,-999.0,44,-99.99,,,0.01,weatherlink.com 1.10,2013-05-29 22:23:00,
2013-05-29 16:38:00,43.4,24.0,29.36,WNW,294,18.0,-999.0,47,-99.99,,,0.01,weatherlink.com 1.10,2013-05-29 22:38:00,
2013-05-29 16:53:00,43.2,25.0,29.37,NW,322,9.0,-999.0,48,-99.99,,,0.01,weatherlink.com 1.10,2013-05-29 22:53:00,
2013-05-29 17:08:00,43.9,25.0,29.38,NNW,338,3.0,-999.0,48,-99.99,,,0.01,weatherlink.com 1.10,2013-05-29 23:08:00,
2013-05-29 17:23:00,43.4,22.0,29.39,NNW,335,4.0,-999.0,43,-99.99,,,0.01,weatherlink.com 1.10,2013-05-29 23:23:00,
2013-05-29 17:38:00,42.6,22.0,29.39,NNW,341,3.0,-999.0,45,-99.99,,,0.01,weatherlink.com 1.10,2013-05-29 23:38:00,
2013-05-29 17:53:00,42.4,22.0,29.39,West,259,12.0,-999.0,44,-99.99,,,0.01,weatherlink.com 1.10,2013-05-29 23:53:00,
2013-05-29 18:08:00,41.6,23.0,29.40,WNW,292,13.0,-999.0,48,-99.99,,,0.01,weatherlink.com 1.10,2013-05-30 00:08:00,
2013-05-29 18:23:00,39.6,23.0,29.40,WNW,301,0.0,-999.0,51,-99.99,,,0.01,weatherlink.com 1.10,2013-05-30 00:23:00,
2013-05-29 18:38:00,39.7,22.0,29.41,NW,309,4.0,-999.0,50,-99.99,,,0.01,weatherlink.com 1.10,2013-05-30 00:38:00,
2013-05-29 18:53:00,39.1,22.0,29.41,NW,314,10.0,-999.0,51,-99.99,,,0.01,weatherlink.com 1.10,2013-05-30 00:53:00,
2013-05-29 19:08:00,33.8,27.0,29.43,WNW,298,6.0,-999.0,76,-99.99,,,0.01,weatherlink.com 1.10,2013-05-30 01:08:00,
2013-05-29 19:23:00,31.2,25.0,29.41,WNW,301,10.0,-999.0,79,-99.99,,,0.01,weatherlink.com 1.10,2013-05-30 01:23:00,
2013-05-29 19:38:00,31.5,25.0,29.42,WNW,289,1.0,-999.0,78,-99.99,,,0.01,weatherlink.com 1.10,2013-05-30 01:38:00,
2013-05-29 19:53:00,31.9,26.0,29.42,NNW,329,2.0,-999.0,78,-99.99,,,0.01,weatherlink.com 1.10,2013-05-30 01:53:00,
2013-05-29 20:08:00,32.1,27.0,29.43,WNW,295,0.0,-999.0,82,-99.99,,,0.01,weatherlink.com 1.10,2013-05-30 02:08:00,
2013-05-29 20:23:00,31.8,28.0,29.43,West,281,5.0,-999.0,84,-99.99,,,0.01,weatherlink.com 1.10,2013-05-30 02:23:00,
2013-05-29 20:38:00,30.8,27.0,29.45,West,277,2.0,-999.0,85,-99.99,,,0.01,weatherlink.com 1.10,2013-05-30 02:38:00,
2013-05-29 20:53:00,29.6,26.0,29.45,NW,309,0.0,-999.0,86,-99.99,,,0.01,weatherlink.com 1.10,2013-05-30 02:53:00,
2013-05-29 21:08:00,29.6,26.0,29.46,West,269,0.0,-999.0,86,-99.99,,,0.01,weatherlink.com 1.10,2013-05-30 03:08:00,
2013-05-29 21:23:00,30.0,25.0,29.47,WNW,287,0.0,-999.0,82,-99.99,,,0.01,weatherlink.com 1.10,2013-05-30 03:23:00,
2013-05-29 21:38:00,30.2,25.0,29.47,East,100,2.0,-999.0,81,-99.99,,,0.01,weatherlink.com 1.10,2013-05-30 03:38:00,
2013-05-29 21:53:00,30.2,25.0,29.48,NE,38,4.0,-999.0,80,-99.99,,,0.01,weatherlink.com 1.10,2013-05-30 03:53:00,
2013-05-29 22:08:00,30.3,25.0,29.49,NW,323,1.0,-999.0,81,-99.99,,,0.01,weatherlink.com 1.10,2013-05-30 04:08:00,
2013-05-29 22:23:00,30.2,25.0,29.50,NNE,17,5.0,-999.0,82,-99.99,,,0.01,weatherlink.com 1.10,2013-05-30 04:23:00,
2013-05-29 22:38:00,30.3,25.0,29.52,ENE,77,0.0,-999.0,81,-99.99,,,0.01,weatherlink.com 1.10,2013-05-30 04:38:00,
2013-05-29 22:53:00,30.4,26.0,29.52,ESE,104,1.0,-999.0,83,-99.99,,,0.01,weatherlink.com 1.10,2013-05-30 04:53:00,
2013-05-29 23:08:00,30.2,25.0,29.50,West,261,0.0,-999.0,81,-99.99,,,0.01,weatherlink.com 1.10,2013-05-30 05:08:00,
2013-05-29 23:23:00,30.4,25.0,29.50,SSE,155,0.0,-999.0,80,-99.99,,,0.01,weatherlink.com 1.10,2013-05-30 05:23:00,
2013-05-29 23:38:00,30.4,25.0,29.50,SW,229,2.0,-999.0,79,-99.99,,,0.01,weatherlink.com 1.10,2013-05-30 05:38:00,
2013-05-29 23:53:00,30.3,26.0,29.50,NW,323,5.0,-999.0,83,-99.99,,,0.01,weatherlink.com 1.10,2013-05-30 05:53:00,